,,Stat5,,Stat1,,Stat2,,Stat3,,Stat4,,Wind1,,Wind1,
time,status,PA1M_AVG,status,PR1M_SUM,status,RH1M_AVG,status,SR1M_AVG,status,TA1M_AVG,status,W1dAve1m,status,W1sAve1m,
2002-07-20, 00:00:00,VALID,920.472,VALID,0,VALID,98.2925,VALID,0.0679233,VALID,20.6502,VALID,98,VALID,0.712305,
2002-07-20, 00:01:00,VALID,920.503,VALID,0,VALID,98.3141,VALID,0.0339617,VALID,20.6333,VALID,84,VALID,0.889992,
2002-07-20, 00:02:00,VALID,920.539,VALID,0,VALID,98.3014,VALID,0.0339617,VALID,20.6435,VALID,85,VALID,1.13817,
2002-07-20, 00:03:00,VALID,920.569,VALID,0,VALID,98.3141,VALID,0.0339617,VALID,20.6465,VALID,59,VALID,0.963086,
2002-07-20, 00:04:00,VALID,920.59,VALID,0,VALID,98.2887,VALID,-0.0339617,VALID,20.6475,VALID,57,VALID,1.26741,
2002-07-20, 00:05:00,VALID,920.622,VALID,0,VALID,98.2251,VALID,-0.0679233,VALID,20.6682,VALID,73,VALID,1.77757,
2002-07-20, 00:06:00,VALID,920.623,VALID,0,VALID,98.192,VALID,-0.0679233,VALID,20.6615,VALID,81,VALID,2.04004,
2002-07-20, 00:07:00,VALID,920.63,VALID,0,VALID,98.1691,VALID,-0.0679233,VALID,20.6644,VALID,88,VALID,1.68584,
2002-07-20, 00:08:00,VALID,920.636,VALID,0,VALID,98.1552,VALID,-0.0509425,VALID,20.6545,VALID,90,VALID,1.42031,
2002-07-20, 00:09:00,VALID,920.614,VALID,0,VALID,98.1768,VALID,-0.0339617,VALID,20.6475,VALID,101,VALID,1.11953,
2002-07-20, 00:10:00,VALID,920.605,VALID,0.2,VALID,98.2149,VALID,-0.0509425,VALID,20.6582,VALID,130,VALID,0.86808,
2002-07-20, 00:11:00,VALID,920.588,VALID,0,VALID,98.234,VALID,-0.0509425,VALID,20.6453,VALID,124,VALID,1.02642,
2002-07-20, 00:12:00,VALID,920.591,VALID,0,VALID,98.2582,VALID,-0.0339617,VALID,20.645,VALID,77,VALID,0.772461,
2002-07-20, 00:13:00,VALID,920.576,VALID,0,VALID,98.2925,VALID,-0.0849042,VALID,20.6423,VALID,74,VALID,0.523201,
2002-07-20, 00:14:00,VALID,920.564,VALID,0,VALID,98.309,VALID,-0.0679233,VALID,20.6421,VALID,76,VALID,0.607813,
2002-07-20, 00:15:00,VALID,920.545,VALID,0,VALID,98.2976,VALID,-0.0509425,VALID,20.6324,VALID,109,VALID,0.760742,
2002-07-20, 00:16:00,VALID,920.519,VALID,0.2,VALID,98.3294,VALID,-0.0679233,VALID,20.6291,VALID,101,VALID,0.728795,
2002-07-20, 00:17:00,VALID,920.501,VALID,0,VALID,98.3573,VALID,-0.0849042,VALID,20.6257,VALID,106,VALID,0.973116,
2002-07-20, 00:18:00,VALID,920.493,VALID,0,VALID,98.3917,VALID,-0.0679233,VALID,20.6257,VALID,140,VALID,1.0291,
2002-07-20, 00:19:00,VALID,920.461,VALID,0.2,VALID,98.3802,VALID,-0.0339617,VALID,20.6346,VALID,147,VALID,1.27936,
2002-07-20, 00:20:00,VALID,920.436,VALID,0,VALID,98.3866,VALID,0,VALID,20.6373,VALID,149,VALID,1.00558,
2002-07-20, 00:21:00,VALID,920.424,VALID,0,VALID,98.3929,VALID,0,VALID,20.6373,VALID,141,VALID,0.838867,
2002-07-20, 00:22:00,VALID,920.397,VALID,0.2,VALID,98.4031,VALID,0,VALID,20.637,VALID,149,VALID,1.06607,
2002-07-20, 00:23:00,VALID,920.377,VALID,0,VALID,98.4247,VALID,0,VALID,20.6308,VALID,144,VALID,0.679917,
2002-07-20, 00:24:00,VALID,920.362,VALID,0,VALID,98.4184,VALID,0.0169808,VALID,20.6244,VALID,153,VALID,0.787305,
2002-07-20, 00:25:00,VALID,920.357,VALID,0,VALID,98.4756,VALID,0.0169808,VALID,20.6179,VALID,222,VALID,0.452652,
2002-07-20, 00:26:00,VALID,920.329,VALID,0.2,VALID,98.487,VALID,-0.0169808,VALID,20.605,VALID,211,VALID,0.729018,
2002-07-20, 00:27:00,VALID,920.325,VALID,0,VALID,98.4909,VALID,0,VALID,20.6025,VALID,236,VALID,0.573438,
2002-07-20, 00:28:00,VALID,920.325,VALID,0,VALID,98.5303,VALID,0,VALID,20.5955,VALID,238,VALID,0.603125,
2002-07-20, 00:29:00,VALID,920.326,VALID,0,VALID,98.5735,VALID,-0.0169808,VALID,20.5821,VALID,241,VALID,0.352482,
2002-07-20, 00:30:00,VALID,920.345,VALID,0,VALID,98.5862,VALID,0.0339617,VALID,20.5789,VALID,242,VALID,0.258789,
2002-07-20, 00:31:00,VALID,920.35,VALID,0,VALID,98.632,VALID,0,VALID,20.5595,VALID,269,VALID,0.576705,
2002-07-20, 00:32:00,VALID,920.336,VALID,0,VALID,98.6358,VALID,0.0169808,VALID,20.5433,VALID,270,VALID,0.451116,
2002-07-20, 00:33:00,VALID,920.321,VALID,0,VALID,98.6587,VALID,0.0169808,VALID,20.5108,VALID,257,VALID,0.744531,
2002-07-20, 00:34:00,VALID,920.309,VALID,0,VALID,98.6854,VALID,0,VALID,20.5043,VALID,275,VALID,0.406027,
2002-07-20, 00:35:00,VALID,920.275,VALID,0,VALID,98.7363,VALID,0.0169808,VALID,20.5177,VALID,221,VALID,0.330882,
2002-07-20, 00:36:00,VALID,920.268,VALID,0,VALID,98.777,VALID,0.0169808,VALID,20.5143,VALID,191,VALID,0.270703,
2002-07-20, 00:37:00,VALID,920.275,VALID,0,VALID,98.7706,VALID,0.0339617,VALID,20.4978,VALID,251,VALID,0.609612,
2002-07-20, 00:38:00,VALID,920.269,VALID,0,VALID,98.7948,VALID,0.0339617,VALID,20.4914,VALID,225,VALID,0.458259,
2002-07-20, 00:39:00,VALID,920.269,VALID,0,VALID,98.8151,VALID,0.0169808,VALID,20.4882,VALID,202,VALID,0.120898,
2002-07-20, 00:40:00,VALID,920.271,VALID,0,VALID,98.8088,VALID,0.0339617,VALID,20.4849,VALID,198,VALID,0.122321,
2002-07-20, 00:41:00,VALID,920.27,VALID,0,VALID,98.8355,VALID,0.0339617,VALID,20.4887,VALID,187,VALID,0.0971967,
2002-07-20, 00:42:00,VALID,920.262,VALID,0,VALID,98.8431,VALID,0.0339617,VALID,20.472,VALID,143,VALID,0.228906,
2002-07-20, 00:43:00,VALID,920.242,VALID,0,VALID,98.8571,VALID,0.0169808,VALID,20.4658,VALID,128,VALID,0.503078,
2002-07-20, 00:44:00,VALID,920.221,VALID,0.2,VALID,98.8609,VALID,0,VALID,20.4658,VALID,115,VALID,0.795313,
2002-07-20, 00:45:00,VALID,920.193,VALID,0,VALID,98.8533,VALID,0.0339617,VALID,20.4494,VALID,113,VALID,0.917578,
2002-07-20, 00:46:00,VALID,920.2,VALID,0,VALID,98.8584,VALID,0,VALID,20.4397,VALID,109,VALID,0.41942,
2002-07-20, 00:47:00,VALID,920.185,VALID,0,VALID,98.8584,VALID,0.0169808,VALID,20.4367,VALID,113,VALID,0.659237,
2002-07-20, 00:48:00,VALID,920.162,VALID,0,VALID,98.8825,VALID,0.0339617,VALID,20.4496,VALID,124,VALID,0.398828,
2002-07-20, 00:49:00,VALID,920.142,VALID,0,VALID,98.8952,VALID,-0.0679233,VALID,20.4502,VALID,76,VALID,0.508049,
2002-07-20, 00:50:00,VALID,920.123,VALID,0,VALID,98.8876,VALID,-0.101885,VALID,20.4639,VALID,78,VALID,0.594643,
2002-07-20, 00:51:00,VALID,920.104,VALID,0,VALID,98.8647,VALID,-0.0849042,VALID,20.4639,VALID,89,VALID,0.651172,
2002-07-20, 00:52:00,VALID,920.082,VALID,0.2,VALID,98.8469,VALID,-0.0679233,VALID,20.4445,VALID,119,VALID,0.833705,
2002-07-20, 00:53:00,VALID,920.062,VALID,0,VALID,98.8609,VALID,-0.0679233,VALID,20.4544,VALID,120,VALID,1.0023,
2002-07-20, 00:54:00,VALID,920.056,VALID,0,VALID,98.8673,VALID,-0.0509425,VALID,20.4547,VALID,116,VALID,0.978906,
2002-07-20, 00:55:00,VALID,920.029,VALID,0,VALID,98.866,VALID,-0.0849042,VALID,20.4482,VALID,136,VALID,0.72017,
2002-07-20, 00:56:00,VALID,919.995,VALID,0,VALID,98.8596,VALID,-0.0679233,VALID,20.4579,VALID,145,VALID,0.900893,
2002-07-20, 00:57:00,VALID,919.982,VALID,0,VALID,98.8304,VALID,-0.0339617,VALID,20.4415,VALID,140,VALID,1.02129,
2002-07-20, 00:58:00,VALID,919.954,VALID,0,VALID,98.8304,VALID,-0.101885,VALID,20.4383,VALID,136,VALID,1.19442,
2002-07-20, 00:59:00,VALID,919.931,VALID,0,VALID,98.8177,VALID,-0.0849042,VALID,20.4318,VALID,119,VALID,0.912454,
2002-07-20, 01:00:00,VALID,919.911,VALID,0,VALID,98.8062,VALID,-0.101885,VALID,20.4286,VALID,127,VALID,0.774023,
2002-07-20, 01:01:00,VALID,919.894,VALID,0,VALID,98.8062,VALID,-0.0679233,VALID,20.4321,VALID,169,VALID,0.597064,
2002-07-20, 01:02:00,VALID,919.871,VALID,0,VALID,98.7948,VALID,-0.0509425,VALID,20.4383,VALID,149,VALID,0.858259,
2002-07-20, 01:03:00,VALID,919.85,VALID,0,VALID,98.7897,VALID,-0.0509425,VALID,20.4219,VALID,153,VALID,0.870508,
2002-07-20, 01:04:00,VALID,919.842,VALID,0,VALID,98.7935,VALID,-0.0849042,VALID,20.4288,VALID,155,VALID,1.01741,
2002-07-20, 01:05:00,VALID,919.83,VALID,0,VALID,98.7986,VALID,-0.101885,VALID,20.4288,VALID,143,VALID,1.02964,
2002-07-20, 01:06:00,VALID,919.833,VALID,0,VALID,98.7744,VALID,-0.101885,VALID,20.4224,VALID,143,VALID,1.44023,
2002-07-20, 01:07:00,VALID,919.836,VALID,0,VALID,98.7795,VALID,-0.0849042,VALID,20.4221,VALID,131,VALID,1.03717,
2002-07-20, 01:08:00,VALID,919.831,VALID,0,VALID,98.7617,VALID,-0.0849042,VALID,20.4323,VALID,143,VALID,1.42232,
2002-07-20, 01:09:00,VALID,919.827,VALID,0,VALID,98.7554,VALID,-0.101885,VALID,20.4353,VALID,133,VALID,0.874609,
2002-07-20, 01:10:00,VALID,919.807,VALID,0,VALID,98.749,VALID,-0.101885,VALID,20.4286,VALID,139,VALID,0.885714,
2002-07-20, 01:11:00,VALID,919.797,VALID,0,VALID,98.7681,VALID,-0.101885,VALID,20.4221,VALID,143,VALID,0.832721,
2002-07-20, 01:12:00,VALID,919.786,VALID,0,VALID,98.763,VALID,-0.101885,VALID,20.4418,VALID,132,VALID,0.433789,
2002-07-20, 01:13:00,VALID,919.779,VALID,0,VALID,98.7375,VALID,-0.0849042,VALID,20.4485,VALID,134,VALID,0.638258,
2002-07-20, 01:14:00,VALID,919.777,VALID,0,VALID,98.7108,VALID,-0.101885,VALID,20.4291,VALID,117,VALID,0.876116,
2002-07-20, 01:15:00,VALID,919.769,VALID,0,VALID,98.6587,VALID,-0.101885,VALID,20.4162,VALID,118,VALID,0.912891,
2002-07-20, 01:16:00,VALID,919.756,VALID,0,VALID,98.6625,VALID,-0.0849042,VALID,20.403,VALID,115,VALID,0.506027,
2002-07-20, 01:17:00,VALID,919.728,VALID,0,VALID,98.6663,VALID,-0.101885,VALID,20.4094,VALID,77,VALID,0.576976,
2002-07-20, 01:18:00,VALID,919.71,VALID,0,VALID,98.6549,VALID,-0.0849042,VALID,20.4253,VALID,72,VALID,0.813086,
2002-07-20, 01:19:00,VALID,919.689,VALID,0,VALID,98.5977,VALID,-0.0679233,VALID,20.4283,VALID,83,VALID,1.01847,
2002-07-20, 01:20:00,VALID,919.659,VALID,0,VALID,98.5481,VALID,-0.0679233,VALID,20.4253,VALID,81,VALID,0.689509,
2002-07-20, 01:21:00,VALID,919.606,VALID,0,VALID,98.5468,VALID,-0.0339617,VALID,20.4216,VALID,51,VALID,0.556055,
2002-07-20, 01:22:00,VALID,919.589,VALID,0,VALID,98.5023,VALID,0.0509425,VALID,20.427,VALID,56,VALID,0.233705,
2002-07-20, 01:23:00,VALID,919.552,VALID,0,VALID,98.426,VALID,0.0509425,VALID,20.4109,VALID,70,VALID,0.798713,
2002-07-20, 01:24:00,VALID,919.501,VALID,0,VALID,98.2238,VALID,0.0339617,VALID,20.3786,VALID,89,VALID,1.30859,
2002-07-20, 01:25:00,VALID,919.473,VALID,0,VALID,98.1297,VALID,0.0679233,VALID,20.3783,VALID,56,VALID,1.259,
2002-07-20, 01:26:00,VALID,919.44,VALID,0,VALID,97.9822,VALID,0.0169808,VALID,20.3885,VALID,86,VALID,0.84308,
2002-07-20, 01:27:00,VALID,919.419,VALID,0,VALID,97.7571,VALID,0.0679233,VALID,20.3917,VALID,100,VALID,0.813281,
2002-07-20, 01:28:00,VALID,919.406,VALID,0,VALID,97.6338,VALID,0.0339617,VALID,20.4144,VALID,120,VALID,0.795313,
2002-07-20, 01:29:00,VALID,919.383,VALID,0,VALID,97.457,VALID,0.0509425,VALID,20.434,VALID,108,VALID,0.795496,
2002-07-20, 01:30:00,VALID,919.355,VALID,0,VALID,97.3375,VALID,0.0679233,VALID,20.4337,VALID,119,VALID,0.71875,
2002-07-20, 01:31:00,VALID,919.328,VALID,0,VALID,97.265,VALID,0.0339617,VALID,20.4308,VALID,152,VALID,0.603693,
2002-07-20, 01:32:00,VALID,919.284,VALID,0,VALID,97.1976,VALID,0.0849042,VALID,20.4372,VALID,140,VALID,0.703795,
2002-07-20, 01:33:00,VALID,919.258,VALID,0,VALID,97.1366,VALID,0.0509425,VALID,20.4109,VALID,153,VALID,0.372461,
2002-07-20, 01:34:00,VALID,919.242,VALID,0,VALID,97.1239,VALID,-0.0339617,VALID,20.4124,VALID,168,VALID,0.374554,
2002-07-20, 01:35:00,VALID,919.233,VALID,0,VALID,97.1264,VALID,-0.0509425,VALID,20.4,VALID,173,VALID,0.269761,
2002-07-20, 01:36:00,VALID,919.223,VALID,0,VALID,97.1379,VALID,-0.0679233,VALID,20.3935,VALID,192,VALID,0.281836,
2002-07-20, 01:37:00,VALID,919.202,VALID,0,VALID,97.0896,VALID,-0.0169808,VALID,20.351,VALID,236,VALID,0.535038,
2002-07-20, 01:38:00,VALID,919.186,VALID,0,VALID,97.1417,VALID,-0.0849042,VALID,20.3289,VALID,253,VALID,0.572321,
2002-07-20, 01:39:00,VALID,919.173,VALID,0,VALID,97.3019,VALID,-0.0849042,VALID,20.3095,VALID,288,VALID,0.608398,
2002-07-20, 01:40:00,VALID,919.154,VALID,0,VALID,97.5588,VALID,-0.0679233,VALID,20.3061,VALID,297,VALID,0.907589,
2002-07-20, 01:41:00,VALID,919.14,VALID,0,VALID,97.7304,VALID,-0.0679233,VALID,20.3001,VALID,313,VALID,0.331801,
2002-07-20, 01:42:00,VALID,919.137,VALID,0,VALID,97.8538,VALID,-0.101885,VALID,20.2902,VALID,311,VALID,0.21875,
2002-07-20, 01:43:00,VALID,919.136,VALID,0,VALID,97.9873,VALID,-0.0849042,VALID,20.281,VALID,310,VALID,0.0970644,
2002-07-20, 01:44:00,VALID,919.137,VALID,0,VALID,98.1106,VALID,-0.0679233,VALID,20.2971,VALID,310,VALID,0.224554,
2002-07-20, 01:45:00,VALID,919.122,VALID,0,VALID,98.2022,VALID,-0.0679233,VALID,20.2872,VALID,310,VALID,0.0175781,
2002-07-20, 01:46:00,VALID,919.104,VALID,0,VALID,98.2556,VALID,-0.0849042,VALID,20.2648,VALID,310,VALID,0,
2002-07-20, 01:47:00,VALID,919.068,VALID,0,VALID,98.2823,VALID,-0.0169808,VALID,20.2452,VALID,311,VALID,0.000229779,
2002-07-20, 01:48:00,VALID,919.026,VALID,0,VALID,98.3077,VALID,-0.0849042,VALID,20.2223,VALID,1,VALID,0.459961,
2002-07-20, 01:49:00,VALID,919.001,VALID,0,VALID,98.3154,VALID,-0.0339617,VALID,20.2032,VALID,16,VALID,0.937973,
2002-07-20, 01:50:00,VALID,918.975,VALID,0,VALID,98.2836,VALID,-0.0679233,VALID,20.1413,VALID,22,VALID,1.22969,
2002-07-20, 01:51:00,VALID,918.975,VALID,0,VALID,98.1768,VALID,-0.0679233,VALID,20.0712,VALID,24,VALID,1.72656,
2002-07-20, 01:52:00,VALID,918.982,VALID,0,VALID,98.2098,VALID,-0.0509425,VALID,19.9832,VALID,27,VALID,1.71183,
2002-07-20, 01:53:00,VALID,918.971,VALID,0,VALID,98.3713,VALID,-0.0509425,VALID,19.935,VALID,27,VALID,1.83938,
2002-07-20, 01:54:00,VALID,918.975,VALID,0,VALID,98.5265,VALID,-0.0849042,VALID,19.9221,VALID,31,VALID,1.58555,
2002-07-20, 01:55:00,VALID,918.971,VALID,0,VALID,98.6765,VALID,-0.0849042,VALID,19.9353,VALID,23,VALID,1.24408,
2002-07-20, 01:56:00,VALID,918.966,VALID,0,VALID,98.7528,VALID,-0.0509425,VALID,19.9281,VALID,27,VALID,1.35268,
2002-07-20, 01:57:00,VALID,918.953,VALID,0,VALID,98.8533,VALID,-0.0509425,VALID,19.9509,VALID,38,VALID,1.02559,
2002-07-20, 01:58:00,VALID,918.948,VALID,0,VALID,98.9016,VALID,-0.0679233,VALID,19.9867,VALID,39,VALID,0.689062,
2002-07-20, 01:59:00,VALID,918.949,VALID,0,VALID,98.9156,VALID,-0.0679233,VALID,19.9962,VALID,58,VALID,0.6983,
2002-07-20, 02:00:00,VALID,918.946,VALID,0,VALID,98.9194,VALID,-0.0679233,VALID,19.9999,VALID,104,VALID,0.472852,
2002-07-20, 02:01:00,VALID,918.943,VALID,0,VALID,98.9232,VALID,-0.0849042,VALID,19.9902,VALID,96,VALID,0.722538,
2002-07-20, 02:02:00,VALID,918.93,VALID,0,VALID,98.9308,VALID,-0.0849042,VALID,19.9765,VALID,114,VALID,0.681473,
2002-07-20, 02:03:00,VALID,918.946,VALID,0,VALID,98.9436,VALID,-0.101885,VALID,19.9713,VALID,116,VALID,0.529297,
2002-07-20, 02:04:00,VALID,918.929,VALID,0,VALID,98.9715,VALID,-0.101885,VALID,19.9514,VALID,120,VALID,0.700223,
2002-07-20, 02:05:00,VALID,918.926,VALID,0,VALID,98.9919,VALID,-0.0679233,VALID,19.9547,VALID,129,VALID,0.460248,
2002-07-20, 02:06:00,VALID,918.933,VALID,0,VALID,99.0186,VALID,-0.101885,VALID,19.9547,VALID,130,VALID,0.612891,
2002-07-20, 02:07:00,VALID,918.934,VALID,0,VALID,99.0389,VALID,-0.0849042,VALID,19.9517,VALID,130,VALID,0.849905,
2002-07-20, 02:08:00,VALID,918.944,VALID,0,VALID,99.0389,VALID,-0.0849042,VALID,19.9512,VALID,99,VALID,0.570759,
2002-07-20, 02:09:00,VALID,918.949,VALID,0,VALID,99.0631,VALID,-0.101885,VALID,19.9475,VALID,101,VALID,0.573047,
2002-07-20, 02:10:00,VALID,918.935,VALID,0,VALID,99.0656,VALID,-0.0679233,VALID,19.9547,VALID,87,VALID,0.334821,
2002-07-20, 02:11:00,VALID,918.914,VALID,0,VALID,99.1,VALID,-0.101885,VALID,19.9679,VALID,60,VALID,0.769761,
2002-07-20, 02:12:00,VALID,918.899,VALID,0,VALID,99.1139,VALID,-0.0849042,VALID,19.9867,VALID,61,VALID,0.695508,
2002-07-20, 02:13:00,VALID,918.9,VALID,0,VALID,99.1165,VALID,-0.0849042,VALID,19.99,VALID,42,VALID,0.716619,
2002-07-20, 02:14:00,VALID,918.883,VALID,0,VALID,99.1178,VALID,-0.0849042,VALID,19.9934,VALID,39,VALID,0.707143,
2002-07-20, 02:15:00,VALID,918.888,VALID,0,VALID,99.1139,VALID,-0.0849042,VALID,19.9773,VALID,62,VALID,0.75,
2002-07-20, 02:16:00,VALID,918.886,VALID,0,VALID,99.1038,VALID,-0.0849042,VALID,19.9509,VALID,76,VALID,0.847991,
2002-07-20, 02:17:00,VALID,918.875,VALID,0,VALID,99.1114,VALID,-0.101885,VALID,19.935,VALID,84,VALID,0.658088,
2002-07-20, 02:18:00,VALID,918.856,VALID,0,VALID,99.1165,VALID,-0.0679233,VALID,19.9385,VALID,82,VALID,0.496094,
2002-07-20, 02:19:00,VALID,918.857,VALID,0,VALID,99.1279,VALID,-0.0849042,VALID,19.9221,VALID,76,VALID,0.717093,
2002-07-20, 02:20:00,VALID,918.857,VALID,0,VALID,99.1406,VALID,-0.101885,VALID,19.9288,VALID,85,VALID,0.632143,
2002-07-20, 02:21:00,VALID,918.872,VALID,0,VALID,99.1356,VALID,-0.101885,VALID,19.9092,VALID,125,VALID,0.834135,
2002-07-20, 02:22:00,VALID,918.864,VALID,0,VALID,99.1292,VALID,-0.101885,VALID,19.9092,VALID,133,VALID,0.794643,
2002-07-20, 02:23:00,VALID,918.877,VALID,0,VALID,99.1534,VALID,-0.101885,VALID,19.9062,VALID,119,VALID,0.654182,
2002-07-20, 02:24:00,VALID,918.896,VALID,0,VALID,99.1686,VALID,-0.0849042,VALID,19.9062,VALID,121,VALID,0.583203,
2002-07-20, 02:25:00,VALID,918.894,VALID,0,VALID,99.1712,VALID,-0.101885,VALID,19.9164,VALID,122,VALID,0.613873,
2002-07-20, 02:26:00,VALID,918.922,VALID,0,VALID,99.1801,VALID,-0.0679233,VALID,19.9159,VALID,124,VALID,0.148214,
2002-07-20, 02:27:00,VALID,918.933,VALID,0,VALID,99.1877,VALID,-0.0849042,VALID,19.9055,VALID,124,VALID,0.122852,
2002-07-20, 02:28:00,VALID,918.944,VALID,0,VALID,99.1826,VALID,-0.0679233,VALID,19.9162,VALID,124,VALID,0.335045,
2002-07-20, 02:29:00,VALID,918.967,VALID,0,VALID,99.1839,VALID,-0.101885,VALID,19.896,VALID,125,VALID,0.397978,
2002-07-20, 02:30:00,VALID,918.975,VALID,0,VALID,99.1788,VALID,-0.0849042,VALID,19.8963,VALID,126,VALID,0.254102,
2002-07-20, 02:31:00,VALID,918.988,VALID,0,VALID,99.1686,VALID,-0.0679233,VALID,19.8868,VALID,126,VALID,0.368845,
2002-07-20, 02:32:00,VALID,918.998,VALID,0,VALID,99.1902,VALID,-0.0679233,VALID,19.867,VALID,126,VALID,0.36875,
2002-07-20, 02:33:00,VALID,918.987,VALID,0,VALID,99.1915,VALID,-0.101885,VALID,19.8675,VALID,115,VALID,0.389844,
2002-07-20, 02:34:00,VALID,918.973,VALID,0,VALID,99.1724,VALID,-0.0679233,VALID,19.8386,VALID,89,VALID,0.534598,
2002-07-20, 02:35:00,VALID,918.97,VALID,0,VALID,99.1699,VALID,-0.118866,VALID,19.7994,VALID,75,VALID,0.594899,
2002-07-20, 02:36:00,VALID,918.955,VALID,0,VALID,99.1597,VALID,-0.0849042,VALID,19.7877,VALID,72,VALID,0.71875,
2002-07-20, 02:37:00,VALID,918.944,VALID,0,VALID,99.1775,VALID,-0.0679233,VALID,19.7745,VALID,68,VALID,0.730114,
2002-07-20, 02:38:00,VALID,918.965,VALID,0,VALID,99.1864,VALID,-0.118866,VALID,19.7646,VALID,67,VALID,0.690402,
2002-07-20, 02:39:00,VALID,918.947,VALID,0,VALID,99.1902,VALID,-0.0849042,VALID,19.7616,VALID,67,VALID,0.701758,
2002-07-20, 02:40:00,VALID,918.943,VALID,0,VALID,99.2004,VALID,-0.101885,VALID,19.7415,VALID,67,VALID,0.727009,
2002-07-20, 02:41:00,VALID,918.951,VALID,0,VALID,99.1979,VALID,-0.0849042,VALID,19.7253,VALID,67,VALID,0.744485,
2002-07-20, 02:42:00,VALID,918.937,VALID,0,VALID,99.1902,VALID,-0.101885,VALID,19.7166,VALID,63,VALID,0.9125,
2002-07-20, 02:43:00,VALID,918.938,VALID,0,VALID,99.2004,VALID,-0.0849042,VALID,19.6965,VALID,59,VALID,0.914299,
2002-07-20, 02:44:00,VALID,918.945,VALID,0,VALID,99.2169,VALID,-0.0679233,VALID,19.7027,VALID,57,VALID,0.839955,
2002-07-20, 02:45:00,VALID,918.943,VALID,0,VALID,99.2208,VALID,-0.0679233,VALID,19.7057,VALID,54,VALID,0.830859,
2002-07-20, 02:46:00,VALID,918.941,VALID,0,VALID,99.2246,VALID,-0.0849042,VALID,19.6995,VALID,52,VALID,0.617411,
2002-07-20, 02:47:00,VALID,918.958,VALID,0,VALID,99.2144,VALID,-0.101885,VALID,19.6515,VALID,46,VALID,0.613051,
2002-07-20, 02:48:00,VALID,918.971,VALID,0,VALID,99.208,VALID,-0.0849042,VALID,19.6252,VALID,41,VALID,0.709766,
2002-07-20, 02:49:00,VALID,919.002,VALID,0,VALID,99.2093,VALID,-0.0169808,VALID,19.6279,VALID,40,VALID,0.637547,
2002-07-20, 02:50:00,VALID,919.006,VALID,0,VALID,99.2195,VALID,0.0509425,VALID,19.6038,VALID,40,VALID,0.73817,
2002-07-20, 02:51:00,VALID,919.039,VALID,0,VALID,99.2335,VALID,0,VALID,19.6108,VALID,40,VALID,0.619727,
2002-07-20, 02:52:00,VALID,919.05,VALID,0,VALID,99.2297,VALID,0.0169808,VALID,19.5916,VALID,40,VALID,0.546429,
2002-07-20, 02:53:00,VALID,919.05,VALID,0,VALID,99.2208,VALID,0,VALID,19.5723,VALID,40,VALID,0.543658,
2002-07-20, 02:54:00,VALID,919.064,VALID,0,VALID,99.2258,VALID,0,VALID,19.5626,VALID,40,VALID,0.482422,
2002-07-20, 02:55:00,VALID,919.066,VALID,0,VALID,99.2309,VALID,0.0339617,VALID,19.5688,VALID,40,VALID,0.240057,
2002-07-20, 02:56:00,VALID,919.053,VALID,0,VALID,99.2373,VALID,-0.0169808,VALID,19.5787,VALID,40,VALID,0.01875,
2002-07-20, 02:57:00,VALID,919.044,VALID,0,VALID,99.2411,VALID,0,VALID,19.569,VALID,40,VALID,0,
2002-07-20, 02:58:00,VALID,919.032,VALID,0,VALID,99.2411,VALID,0,VALID,19.5887,VALID,40,VALID,0,
2002-07-20, 02:59:00,VALID,919.019,VALID,0,VALID,99.2437,VALID,0.0169808,VALID,19.6242,VALID,40,VALID,0.123392,
2002-07-20, 03:00:00,VALID,919.019,VALID,0,VALID,99.2525,VALID,0.0169808,VALID,19.617,VALID,40,VALID,0.0777344,
2002-07-20, 03:01:00,VALID,919.027,VALID,0,VALID,99.2487,VALID,0.0169808,VALID,19.6145,VALID,40,VALID,0.0549242,
2002-07-20, 03:02:00,VALID,919.039,VALID,0,VALID,99.2347,VALID,0,VALID,19.5661,VALID,40,VALID,0.0209821,
2002-07-20, 03:03:00,VALID,919.041,VALID,0,VALID,99.2055,VALID,0,VALID,19.5082,VALID,40,VALID,0.0974609,
2002-07-20, 03:04:00,VALID,919.046,VALID,0,VALID,99.1979,VALID,-0.0339617,VALID,19.4761,VALID,40,VALID,0.238393,
2002-07-20, 03:05:00,VALID,919.042,VALID,0.2,VALID,99.236,VALID,-0.0169808,VALID,19.5149,VALID,40,VALID,0.29205,
2002-07-20, 03:06:00,VALID,919.04,VALID,0,VALID,99.2462,VALID,-0.0339617,VALID,19.5442,VALID,40,VALID,0.339063,
2002-07-20, 03:07:00,VALID,919.051,VALID,0,VALID,99.2653,VALID,-0.0169808,VALID,19.5603,VALID,42,VALID,0.369555,
2002-07-20, 03:08:00,VALID,919.051,VALID,0,VALID,99.2678,VALID,-0.0339617,VALID,19.5633,VALID,46,VALID,0.414063,
2002-07-20, 03:09:00,VALID,919.059,VALID,0,VALID,99.2424,VALID,0,VALID,19.5342,VALID,69,VALID,0.57832,
2002-07-20, 03:10:00,VALID,919.075,VALID,0,VALID,99.2398,VALID,-0.0169808,VALID,19.4855,VALID,83,VALID,0.897321,
2002-07-20, 03:11:00,VALID,919.06,VALID,0,VALID,99.2386,VALID,-0.0169808,VALID,19.4793,VALID,75,VALID,1.07583,
2002-07-20, 03:12:00,VALID,919.046,VALID,0,VALID,99.2322,VALID,-0.0509425,VALID,19.4473,VALID,83,VALID,1.26855,
2002-07-20, 03:13:00,VALID,919.068,VALID,0,VALID,99.2754,VALID,0,VALID,19.4768,VALID,82,VALID,1.49621,
2002-07-20, 03:14:00,VALID,919.063,VALID,0,VALID,99.2945,VALID,-0.0509425,VALID,19.5119,VALID,76,VALID,1.47455,
2002-07-20, 03:15:00,VALID,919.075,VALID,0,VALID,99.2971,VALID,0,VALID,19.5241,VALID,74,VALID,1.24629,
2002-07-20, 03:16:00,VALID,919.083,VALID,0,VALID,99.3098,VALID,0,VALID,19.534,VALID,72,VALID,1.00848,
2002-07-20, 03:17:00,VALID,919.087,VALID,0,VALID,99.2983,VALID,0,VALID,19.5442,VALID,72,VALID,0.733915,
2002-07-20, 03:18:00,VALID,919.091,VALID,0,VALID,99.3047,VALID,0,VALID,19.5111,VALID,92,VALID,0.76875,
2002-07-20, 03:19:00,VALID,919.107,VALID,0,VALID,99.3009,VALID,0,VALID,19.4818,VALID,115,VALID,0.691051,
2002-07-20, 03:20:00,VALID,919.119,VALID,0,VALID,99.2996,VALID,0,VALID,19.4664,VALID,134,VALID,0.411607,
2002-07-20, 03:21:00,VALID,919.123,VALID,0,VALID,99.2882,VALID,0,VALID,19.4373,VALID,148,VALID,0.498437,
2002-07-20, 03:22:00,VALID,919.124,VALID,0,VALID,99.3034,VALID,0,VALID,19.4277,VALID,143,VALID,0.683929,
2002-07-20, 03:23:00,VALID,919.127,VALID,0,VALID,99.3149,VALID,-0.0169808,VALID,19.4214,VALID,149,VALID,0.545956,
2002-07-20, 03:24:00,VALID,919.114,VALID,0,VALID,99.3123,VALID,-0.0509425,VALID,19.4244,VALID,147,VALID,0.425781,
2002-07-20, 03:25:00,VALID,919.101,VALID,0,VALID,99.3238,VALID,0,VALID,19.4311,VALID,109,VALID,0.461411,
2002-07-20, 03:26:00,VALID,919.098,VALID,0,VALID,99.3339,VALID,0.0169808,VALID,19.4468,VALID,132,VALID,0.432143,
2002-07-20, 03:27:00,VALID,919.09,VALID,0,VALID,99.3416,VALID,-0.0339617,VALID,19.4532,VALID,131,VALID,0.179688,
2002-07-20, 03:28:00,VALID,919.08,VALID,0,VALID,99.3543,VALID,0,VALID,19.4662,VALID,124,VALID,0.495536,
2002-07-20, 03:29:00,VALID,919.066,VALID,0,VALID,99.3543,VALID,0,VALID,19.4692,VALID,104,VALID,0.272978,
2002-07-20, 03:30:00,VALID,919.071,VALID,0,VALID,99.3517,VALID,-0.0169808,VALID,19.486,VALID,82,VALID,0.273828,
2002-07-20, 03:31:00,VALID,919.064,VALID,0,VALID,99.3517,VALID,-0.0339617,VALID,19.4629,VALID,108,VALID,0.553267,